This is the latest recevied weather packets stored in our database for station/object OE6JUE. If no packets are shown the sender has not sent any weather packets the latest 10 day(s).
| Time | Temp. | Humidity | Pressure | Rain* | Wind** | Luminosity | Snow |
|---|---|---|---|---|---|---|---|
| 1777554004 | 16.11° C | 22% | 1027.5 hPa | - | - | - | - |
| 1777553704 | 16.67° C | 22% | 1027.6 hPa | - | - | - | - |
| 1777553404 | 16.67° C | 22% | 1027.6 hPa | - | - | - | - |
| 1777553104 | 16.11° C | 22% | 1027.6 hPa | - | - | - | - |
| 1777552803 | 16.11° C | 22% | 1027.7 hPa | - | - | - | - |
| 1777552504 | 15.56° C | 22% | 1027.7 hPa | - | - | - | - |
| 1777552204 | 16.11° C | 22% | 1027.8 hPa | - | - | - | - |
| 1777551903 | 16.67° C | 22% | 1027.8 hPa | - | - | - | - |
| 1777551603 | 16.11° C | 22% | 1027.9 hPa | - | - | - | - |
| 1777551303 | 16.11° C | 22% | 1027.9 hPa | - | - | - | - |
| 1777551003 | 16.11° C | 22% | 1027.8 hPa | - | - | - | - |
| 1777550703 | 15.56° C | 22% | 1028.1 hPa | - | - | - | - |
| 1777550403 | 15.56° C | 22% | 1028.1 hPa | - | - | - | - |
| 1777550103 | 15.56° C | 22% | 1028.1 hPa | - | - | - | - |
| 1777549803 | 15.56° C | 22% | 1028.3 hPa | - | - | - | - |
| 1777549503 | 15.56° C | 22% | 1028.1 hPa | - | - | - | - |
| 1777549203 | 15° C | 22% | 1028.2 hPa | - | - | - | - |
| 1777548903 | 15.56° C | 22% | 1028.2 hPa | - | - | - | - |
| 1777548603 | 15° C | 22% | 1028.2 hPa | - | - | - | - |
| 1777548303 | 15° C | 22% | 1028.2 hPa | - | - | - | - |
| 1777548003 | 14.44° C | 22% | 1028.3 hPa | - | - | - | - |
| 1777547703 | 15° C | 22% | 1028.3 hPa | - | - | - | - |
| 1777547403 | 15° C | 22% | 1028.4 hPa | - | - | - | - |
| 1777547104 | 14.44° C | 22% | 1028.5 hPa | - | - | - | - |
| 1777546803 | 15° C | 22% | 1028.4 hPa | - | - | - | - |
* Rain since midnight (hover to see other rain measurements)
** Current wind speed in m/s (hover to see current wind gust speed)